• In Hungary
  • List of Countries
  • For 7 days
  • Water Temperature
  • Satellite Maps
  • Weather Map
  • News
  • Weather Widgets
  • user-avatar
    Login

    Hourly Weather Baygazino

    Today, 19 September, Wednesday

    Time Temperature Precipitation Wind Pressure Humidity
    00:00 +13°C° 0 mm 3 mps 715 mmHg 68%
    01:00 +14°C° 0 mm 2 mps 715 mmHg 71%
    02:00 +13°C° 0.3 mm 2 mps 714 mmHg 78%
    03:00 +12°C° 0.3 mm 3 mps 714 mmHg 85%
    04:00 +11°C° 0.3 mm 3 mps 713 mmHg 92%
    05:00 +11°C° 0.3 mm 3 mps 713 mmHg 93%
    06:00 +11°C° 0.3 mm 3 mps 713 mmHg 93%
    07:00 +11°C° 0.3 mm 4 mps 713 mmHg 93%
    08:00 +11°C° 0.7 mm 4 mps 713 mmHg 91%
    09:00 +10°C° 0.7 mm 5 mps 713 mmHg 90%
    10:00 +12°C° 0.7 mm 5 mps 713 mmHg 88%
    11:00 +10°C° 0.5 mm 5 mps 713 mmHg 88%
    12:00 +10°C° 0.5 mm 5 mps 713 mmHg 88%
    13:00 +10°C° 0.5 mm 4 mps 713 mmHg 89%
    14:00 +10°C° 0.1 mm 4 mps 714 mmHg 88%
    15:00 +10°C° 0.1 mm 4 mps 714 mmHg 87%
    16:00 +11°C° 0.1 mm 4 mps 714 mmHg 86%
    17:00 +10°C° 0.1 mm 3 mps 714 mmHg 88%
    18:00 +9°C° 0.1 mm 3 mps 715 mmHg 90%
    19:00 +9°C° 0.1 mm 2 mps 715 mmHg 93%
    20:00 +8°C° 0 mm 2 mps 715 mmHg 94%
    21:00 +7°C° 0 mm 2 mps 715 mmHg 95%
    22:00 +6°C° 0 mm 2 mps 715 mmHg 97%
    23:00 +7°C° 0 mm 1 mps 715 mmHg 97%

    Tomorrow, 20 September, Thursday

    Time Temperature Precipitation Wind Pressure Humidity
    00:00 +7°C° 0 mm 1 mps 715 mmHg 97%
    01:00 +6°C° 0 mm 1 mps 715 mmHg 98%
    02:00 +6°C° 0 mm 1 mps 715 mmHg 97%
    03:00 +7°C° 0 mm 1 mps 715 mmHg 97%
    04:00 +7°C° 0 mm 1 mps 716 mmHg 96%
    05:00 +7°C° 0 mm 1 mps 716 mmHg 96%
    06:00 +7°C° 0 mm 1 mps 716 mmHg 96%
    07:00 +7°C° 0 mm 1 mps 716 mmHg 96%
    08:00 +7°C° 0 mm 2 mps 716 mmHg 93%
    09:00 +8°C° 0 mm 2 mps 716 mmHg 89%
    10:00 +9°C° 0 mm 3 mps 717 mmHg 86%
    11:00 +9°C° 0 mm 3 mps 717 mmHg 85%
    12:00 +9°C° 0 mm 3 mps 717 mmHg 84%
    13:00 +10°C° 0 mm 4 mps 717 mmHg 83%
    14:00 +8°C° 0.1 mm 4 mps 717 mmHg 84%
    15:00 +8°C° 0.1 mm 4 mps 717 mmHg 85%
    16:00 +7°C° 0.1 mm 4 mps 717 mmHg 86%
    17:00 +7°C° 0.1 mm 4 mps 718 mmHg 88%
    18:00 +6°C° 0.1 mm 4 mps 718 mmHg 90%
    19:00 +6°C° 0.1 mm 4 mps 718 mmHg 91%
    20:00 +6°C° 0.1 mm 4 mps 718 mmHg 91%
    21:00 +6°C° 0.1 mm 4 mps 718 mmHg 91%
    22:00 +6°C° 0.1 mm 4 mps 718 mmHg 92%
    23:00 +5°C° 0 mm 4 mps 718 mmHg 92%

    Day after tomorrow, 21 September, Friday

    Time Temperature Precipitation Wind Pressure Humidity
    00:00 +5°C° 0 mm 3 mps 718 mmHg 92%
    01:00 +5°C° 0 mm 3 mps 717 mmHg 93%
    02:00 +5°C° 0.1 mm 3 mps 718 mmHg 92%
    03:00 +5°C° 0.1 mm 3 mps 718 mmHg 92%
    04:00 +5°C° 0.1 mm 3 mps 718 mmHg 92%
    05:00 +5°C° 0 mm 3 mps 718 mmHg 92%
    06:00 +5°C° 0 mm 3 mps 718 mmHg 92%
    07:00 +5°C° 0 mm 3 mps 718 mmHg 92%
    08:00 +6°C° 0 mm 4 mps 719 mmHg 90%
    09:00 +7°C° 0 mm 4 mps 719 mmHg 87%
    10:00 +7°C° 0 mm 4 mps 719 mmHg 85%
    11:00 +8°C° 0 mm 4 mps 720 mmHg 83%
    12:00 +10°C° 0 mm 4 mps 720 mmHg 81%
    13:00 +10°C° 0 mm 4 mps 720 mmHg 78%
    14:00 +10°C° 0 mm 4 mps 720 mmHg 78%
    15:00 +10°C° 0 mm 4 mps 721 mmHg 77%
    16:00 +10°C° 0 mm 4 mps 721 mmHg 77%
    17:00 +10°C° 0 mm 4 mps 721 mmHg 81%
    18:00 +9°C° 0 mm 3 mps 722 mmHg 85%
    19:00 +8°C° 0 mm 3 mps 722 mmHg 89%
    20:00 +8°C° 0 mm 3 mps 722 mmHg 91%
    21:00 +7°C° 0 mm 2 mps 723 mmHg 93%
    22:00 +7°C° 0 mm 2 mps 723 mmHg 95%
    23:00 +7°C° 0 mm 2 mps 723 mmHg 94%

    22 September, Saturday

    Time Temperature Precipitation Wind Pressure Humidity
    00:00 +7°C° 0 mm 2 mps 724 mmHg 94%
    01:00 +7°C° 0 mm 2 mps 724 mmHg 94%
    02:00 +7°C° 0 mm 2 mps 724 mmHg 94%
    03:00 +7°C° 0 mm 2 mps 725 mmHg 94%
    04:00 +7°C° 0 mm 2 mps 725 mmHg 94%
    05:00 +7°C° 0 mm 2 mps 725 mmHg 93%
    06:00 +7°C° 0 mm 2 mps 726 mmHg 93%
    07:00 +7°C° 0 mm 2 mps 726 mmHg 92%
    08:00 +8°C° 0 mm 3 mps 726 mmHg 87%
    09:00 +9°C° 0 mm 3 mps 727 mmHg 81%
    10:00 +11°C° 0 mm 3 mps 727 mmHg 76%
    11:00 +12°C° 0 mm 3 mps 727 mmHg 71%
    12:00 +13°C° 0 mm 3 mps 727 mmHg 66%
    13:00 +14°C° 0 mm 3 mps 727 mmHg 61%
    14:00 +14°C° 0 mm 4 mps 727 mmHg 60%
    15:00 +14°C° 0 mm 4 mps 727 mmHg 59%
    16:00 +14°C° 0 mm 4 mps 727 mmHg 58%
    17:00 +12°C° 0 mm 3 mps 727 mmHg 67%
    18:00 +10°C° 0 mm 3 mps 727 mmHg 75%
    19:00 +8°C° 0 mm 2 mps 727 mmHg 84%
    20:00 +8°C° 0 mm 2 mps 728 mmHg 87%
    21:00 +9°C° 0 mm 1 mps 728 mmHg 90%
    22:00 +8°C° 0 mm 1 mps 728 mmHg 93%
    23:00 +8°C° 0 mm 1 mps 728 mmHg 94%

    23 September, Sunday

    Time Temperature Precipitation Wind Pressure Humidity
    00:00 +8°C° 0 mm 1 mps 728 mmHg 95%
    01:00 +9°C° 0 mm 1 mps 728 mmHg 95%
    02:00 +9°C° 0 mm 1 mps 728 mmHg 96%
    03:00 +9°C° 0 mm 1 mps 728 mmHg 96%
    04:00 +10°C° 0 mm 1 mps 728 mmHg 97%
    05:00 +10°C° 0 mm 1 mps 728 mmHg 97%
    06:00 +10°C° 0 mm 1 mps 729 mmHg 97%
    07:00 +10°C° 0 mm 1 mps 729 mmHg 97%
    08:00 +12°C° 0 mm 2 mps 729 mmHg 91%
    09:00 +13°C° 0 mm 2 mps 729 mmHg 86%
    10:00 +15°C° 0 mm 2 mps 728 mmHg 80%
    11:00 +16°C° 0 mm 2 mps 728 mmHg 76%
    12:00 +17°C° 0 mm 3 mps 728 mmHg 71%
    13:00 +18°C° 0 mm 3 mps 728 mmHg 67%
    14:00 +18°C° 0 mm 3 mps 728 mmHg 68%
    15:00 +18°C° 0 mm 3 mps 728 mmHg 68%
    16:00 +18°C° 0 mm 3 mps 728 mmHg 69%
    17:00 +16°C° 0 mm 2 mps 728 mmHg 77%
    18:00 +14°C° 0 mm 2 mps 728 mmHg 85%
    19:00 +12°C° 0 mm 1 mps 728 mmHg 92%
    20:00 +12°C° 0 mm 1 mps 728 mmHg 93%
    21:00 +11°C° 0 mm 1 mps 728 mmHg 94%
    22:00 +11°C° 0 mm 1 mps 728 mmHg 94%
    23:00 +10°C° 0 mm 1 mps 727 mmHg 94%

    24 September, Monday

    Time Temperature Precipitation Wind Pressure Humidity
    00:00 +9°C° 0 mm 0 mps 727 mmHg 94%
    01:00 +9°C° 0 mm 0 mps 727 mmHg 94%
    02:00 +9°C° 0 mm 0 mps 727 mmHg 94%
    03:00 +10°C° 0 mm 1 mps 727 mmHg 94%
    04:00 +9°C° 0 mm 1 mps 727 mmHg 94%
    05:00 +10°C° 0 mm 1 mps 727 mmHg 94%
    06:00 +10°C° 0 mm 1 mps 727 mmHg 94%
    07:00 +10°C° 0 mm 1 mps 727 mmHg 93%
    08:00 +13°C° 0 mm 1 mps 727 mmHg 85%
    09:00 +15°C° 0 mm 1 mps 728 mmHg 77%
    10:00 +19°C° 0 mm 1 mps 728 mmHg 68%
    11:00 +19°C° 0 mm 1 mps 728 mmHg 65%
    12:00 +20°C° 0 mm 1 mps 728 mmHg 61%
    13:00 +21°C° 0 mm 1 mps 727 mmHg 58%
    14:00 +21°C° 0 mm 1 mps 727 mmHg 60%
    15:00 +19°C° 0 mm 2 mps 727 mmHg 61%
    16:00 +19°C° 0 mm 2 mps 727 mmHg 63%
    17:00 +18°C° 0 mm 1 mps 727 mmHg 71%
    18:00 +15°C° 0 mm 1 mps 727 mmHg 80%
    19:00 +13°C° 0 mm 1 mps 727 mmHg 89%
    20:00 +13°C° 0 mm 1 mps 727 mmHg 90%
    21:00 +12°C° 0 mm 1 mps 727 mmHg 91%
    22:00 +12°C° 0 mm 1 mps 727 mmHg 93%
    23:00 +12°C° 0 mm 1 mps 727 mmHg 93%
    Show more